Hondo, TX

4:48 AM CST on December 16, 2019 (GMT -0600)
Hondo Municipal

Weather History for KHDO - October, 2019

Change the Weather History Date:

Wednesday, October 23, 2019

  Actual Average Record
Temperature  
Mean Temperature 68 °F -  
Max Temperature 87 °F 78 °F 106 °F (2003)
Min Temperature 50 °F 56 °F 35 °F (1996)
Cooling Degree Days 3    
Growing Degree Days 18 (Base 50)    
Moisture  
Dew Point 51 °F    
Average Humidity 56    
Maximum Humidity 83    
Minimum Humidity 27    
Precipitation  
Precipitation 0.00 in - - ()
Sea Level Pressure  
Sea Level Pressure 29.99 in    
Wind  
Wind Speed 9 mph (SE)    
Max Wind Speed 20 mph    
Max Gust Speed 29 mph    
Visibility 10 miles    
Events      
Averages and records for this station are not official NWS values.
T = Trace of Precipitation, MM = Missing Value Source: NWS Daily Summary

Daily Weather History Graph

Daily Weather History Graph

Search for Another Location

Airport or City:

Astronomy

Oct. 23, 2019 Rise Set
Actual Time 7:43 AM CDT 6:58 PM CDT
Civil Twilight 7:19 AM CDT 7:22 PM CDT
Nautical Twilight 6:51 AM CDT 7:50 PM CDT
Astronomical Twilight 6:23 AM CDT 8:18 PM CDT
Moon 2:37 AM CDT (10/23) 4:20 PM CDT (10/23)
Length of Visible Light 12h 03m
Length of Day
11h 15m
Waning Crescent, 26% of the Moon is Illuminated
Oct 23
Waning Crescent
Oct 27
New
Nov 4
First Quarter
Nov 12
Full
Nov 19
Last Quarter

Hourly Weather History & Observations

Time (CDT) Temp. Heat Index Dew Point Humidity Pressure Visibility Wind Dir Wind Speed Gust Speed Precip Events Conditions
12:51 AM 61.0 °F - 45.0 °F 56% 30.08 in 10.0 mi SE 8.1 mph - N/A   Clear
1:51 AM 60.1 °F - 45.0 °F 57% 30.07 in 10.0 mi ESE 4.6 mph - N/A   Clear
2:51 AM 55.0 °F - 45.0 °F 69% 30.07 in 10.0 mi East 3.5 mph - N/A   Clear
3:51 AM 51.1 °F - 44.1 °F 77% 30.06 in 10.0 mi North 6.9 mph - N/A   Clear
4:51 AM 50.0 °F - 45.0 °F 83% 30.05 in 10.0 mi NE 6.9 mph - N/A   Clear
5:51 AM 51.1 °F - 45.0 °F 80% 30.05 in 10.0 mi North 5.8 mph - N/A   Clear
6:51 AM 51.1 °F - 44.1 °F 77% 30.06 in 10.0 mi North 4.6 mph - N/A   Clear
7:51 AM 51.1 °F - 46.0 °F 83% 30.07 in 10.0 mi NNE 5.8 mph - N/A   Clear
8:51 AM 59.0 °F - 48.0 °F 67% 30.07 in 10.0 mi ENE 3.5 mph - N/A   Clear
9:51 AM 66.0 °F - 51.1 °F 59% 30.08 in 10.0 mi Variable 4.6 mph - N/A   Clear
10:51 AM 72.0 °F - 55.0 °F 55% 30.08 in 10.0 mi SSE 6.9 mph - N/A   Clear
11:51 AM 78.1 °F - 57.0 °F 48% 30.05 in 10.0 mi South 16.1 mph 24.2 mph N/A   Clear
1:51 PM 84.0 °F 82.5 °F 53.1 °F 34% 29.97 in 10.0 mi SSW 19.6 mph 28.8 mph N/A   Clear
2:51 PM 84.9 °F 83.6 °F 55.0 °F 36% 29.93 in 10.0 mi SE 10.4 mph - N/A   Clear
3:51 PM 86.0 °F - 51.1 °F 30% 29.90 in 10.0 mi South 15.0 mph 26.5 mph N/A   Clear
4:51 PM 86.0 °F - 48.0 °F 27% 29.88 in 10.0 mi South 16.1 mph - N/A   Clear
5:51 PM 84.9 °F - 48.0 °F 28% 29.88 in 10.0 mi SSE 16.1 mph - N/A   Clear
6:51 PM 81.0 °F - 48.9 °F 33% 29.88 in 10.0 mi SSE 10.4 mph - N/A   Clear
7:51 PM 78.1 °F - 54.0 °F 43% 29.90 in 10.0 mi SE 12.7 mph - N/A   Clear
8:51 PM 75.9 °F - 57.9 °F 54% 29.91 in 10.0 mi SE 16.1 mph - N/A   Clear
9:51 PM 73.9 °F - 60.1 °F 62% 29.94 in 10.0 mi SE 18.4 mph 24.2 mph N/A   Partly Cloudy
10:51 PM 73.0 °F - 61.0 °F 66% 29.94 in 10.0 mi SSE 13.8 mph - N/A   Overcast
11:51 PM 71.1 °F - 62.1 °F 73% 29.95 in 10.0 mi SSE 11.5 mph - N/A   Overcast